Dewpoint
72 72 72 72 72 72 70 72 73 71 72 71 71 70 70 70 70 70 70 70 69 69 69 69 69 70 71 69 65 65 65 65 61 60 63 67 66 64 62 64 65 63 62
73 72 72 73 72 71 71 71 71 70 70 70 70 69 69 69 69 68 68 68 68 68 68 68 66 64 63 61 61 60 62 63 65 64 66 68 67 67 66 66 64 61 62
73 71 70 70 69 69 69 69 70 70 69 68 68 69 68 68 67 67 66 66 65 65 65 64 63 63 62 59 57 55 55 56 56 60 60 64 64 64 64 64 65 64 63
68 68 69 69 69 68 69 69 68 68 68 67 67 67 66 65 65 64 64 63 63 62 61 61 59 59 58 58 55 54 54 54 54 53 55 56 57 59 59 58 59 61 59
69 69 69 69 69 68 69 69 68 68 67 67 66 65 65 61 56 62 61 60 59 58 57 54 53 52 52 52 47 51 53 47 45 47 49 48 52 50 52 50 47 50 52
69 68 69 69 69 68 68 67 67 66 66 66 64 62 59 50 57 56 54 51 52 53 52 52 52 50 51 51 50 51 52 53 51 46 43 42 50 48 48 46 43 42 40
69 69 69 69 69 68 67 66 64 63 62 61 59 58 57 55 55 54 51 48 49 51 51 50 45 45 52 51 53 53 53 51 51 52 51 50 50 52 53 53 51 49 48
69 69 68 68 67 66 65 63 62 61 60 59 57 57 57 56 55 54 51 53 53 52 52 51 51 52 52 49 49 49 49 49 50 47 49 49 50 51 53 52 53 53 51
68 68 67 67 66 65 63 61 59 58 57 56 56 56 56 58 54 56 55 52 52 51 51 52 51 51 49 48 49 48 49 48 50 53 52 52 52 51 51 48 46 45 44
66 66 66 66 65 63 61 59 58 57 56 52 54 56 50 56 53 55 56 48 48 46 50 51 52 48 48 48 48 47 46 46 47 47 48 50 52 50 54 53 49 46 45
67 66 66 65 63 60 58 58 57 57 56 57 56 56 54 53 53 51 50 51 47 44 43 43 44 50 49 49 49 47 47 47 46 45 45 45 45 45 45 47 52 49 47
67 66 64 62 54 54 58 58 58 57 56 56 56 52 48 56 52 49 47 47 48 46 45 42 45 49 48 49 49 49 49 49 44 43 43 45 44 43 44 48 52 53 52
65 63 61 58 56 57 57 57 53 56 50 50 46 44 46 49 50 49 48 48 48 45 42 46 49 48 48 48 50 51 51 44 44 43 43 43 44 45 49 49 50 52 54
61 59 57 55 55 55 51 49 46 44 46 46 44 41 41 44 45 43 42 45 48 46 48 44 46 48 49 49 50 48 47 46 45 43 44 45 45 45 44 45 46 46 50
60 56 53 50 52 52 51 48 46 50 44 41 42 41 40 37 41 42 41 41 41 42 44 43 42 44 45 45 45 44 46 46 45 43 44 44 44 45 45 45 45 45 49
55 50 46 45 47 45 45 44 45 46 46 46 44 42 41 43 44 43 42 42 42 43 43 41 41 42 43 45 45 45 46 45 45 45 45 46 45 45 45 45 46 46 46
50 50 44 45 44 45 44 44 43 44 45 43 42 43 43 42 42 41 40 41 41 43 42 42 43 44 45 45 45 44 44 44 47 46 45 46 46 44 45 44 45 45 45
50 49 46 46 44 43 44 44 41 41 40 42 43 43 42 41 41 41 41 42 43 43 42 41 41 42 45 45 45 44 45 45 45 44 45 45 45 46 45 45 45 45 45
48 46 47 45 45 46 46 43 40 41 40 40 41 43 43 41 41 41 41 44 43 41 40 39 40 40 41 43 45 45 46 46 46 45 45 44 44 48 47 48 47 45 46
48 50 48 43 42 42 41 39 39 40 39 39 40 40 40 40 40 41 43 42 41 40 40 40 41 41 45 45 45 46 46 46 46 48 48 48 49 49 48 48 46 46 44
42 42 47 39 38 38 38 38 38 38 39 39 38 39 42 41 41 40 39 39 40 40 41 41 42 43 44 44 46 48 47 48 48 48 48 48 49 48 49 49 46 46 44
43 42 39 37 37 39 37 38 39 40 39 38 37 39 40 41 40 40 40 39 39 41 41 42 41 43 43 47 48 48 46 46 46 46 47 46 47 47 48 48 47 46 44
43 41 38 37 39 42 39 39 38 38 37 39 40 41 42 42 43 42 42 40 40 41 41 42 45 44 46 47 47 46 45 43 41 39 37 39 44 46 47 47 45 44 45
44 41 37 37 39 38 38 40 41 40 41 41 42 42 43 43 43 44 43 41 40 41 42 44 44 44 46 46 46 46 42 41 38 36 35 36 41 45 46 46 44 44 45
44 41 38 38 38 39 41 41 42 42 42 42 42 42 42 44 44 44 43 41 40 42 43 44 43 44 46 45 45 42 38 33 36 35 36 38 43 45 46 45 44 44 44
41 40 37 37 38 41 43 42 42 42 42 42 43 45 45 45 45 44 43 40 41 43 43 44 42 44 45 44 42 36 32 32 35 32 37 42 45 45 45 44 43 43 44
Lifted_Index
-7 -6 -6 -5 -5 -4 -4 -4 -4 -3 -3 -3 -2 -2 -2 -2 -2 -2 -2 -2 -2 -1 -1 -1 -1 -1 -1 -0 0 1 1 1 1 1 1 1 -0 -0 -0 -1 -1 -0 -0
-6 -6 -6 -5 -5 -4 -4 -4 -4 -3 -3 -2 -2 -2 -2 -2 -2 -1 -1 -1 -1 -1 -1 -0 0 1 1 1 1 1 1 1 1 1 1 1 0 -0 -0 -0 0 0 0
-5 -5 -5 -5 -4 -4 -3 -3 -3 -3 -2 -2 -1 -1 -1 -1 -1 -1 -0 -0 0 0 1 1 2 2 2 2 2 2 2 2 1 1 1 1 1 1 1 1 1 2 2
-4 -4 -4 -3 -3 -3 -3 -3 -2 -2 -2 -1 -1 -0 0 1 1 1 1 1 2 2 3 3 4 5 5 5 5 5 4 4 3 3 3 2 2 1 2 2 2 3 3
-4 -3 -3 -3 -2 -2 -2 -2 -2 -1 -1 -0 0 1 2 3 3 3 3 4 4 5 5 6 7 8 9 9 9 8 8 7 7 6 6 5 5 4 4 5 5 6 6
-3 -3 -3 -2 -1 -1 -1 -0 -0 0 1 1 2 3 4 5 7 7 7 7 7 7 7 8 9 10 10 10 11 10 10 10 10 10 9 9 8 8 8 8 9 9 9
-3 -3 -2 -1 -1 -0 1 1 2 3 3 4 4 5 5 7 9 9 9 8 8 8 9 9 9 9 10 10 11 11 10 11 11 11 11 10 10 10 10 10 10 10 10
-3 -3 -2 -1 -0 1 2 3 4 5 5 5 6 6 6 7 8 9 9 8 8 8 9 9 9 9 10 11 11 11 10 11 11 11 11 11 11 11 11 10 10 10 10
-3 -2 -2 -1 0 1 3 5 6 6 6 6 6 7 7 7 8 9 8 8 8 8 8 9 9 10 11 12 12 11 11 10 11 11 11 11 11 11 11 11 11 10 10
-3 -2 -1 -0 1 2 4 6 7 7 7 7 7 7 7 8 9 9 9 8 8 8 9 9 9 10 11 12 12 11 11 11 11 11 11 11 11 11 11 11 11 11 10
-3 -2 -1 -0 1 4 6 7 7 6 6 6 6 7 7 8 9 10 10 10 9 9 9 9 9 10 11 12 11 11 10 11 10 10 10 10 10 10 10 10 10 10 10
-3 -2 -1 1 3 5 7 7 6 6 6 6 7 7 8 8 9 10 11 11 11 10 10 9 9 10 10 10 10 10 10 10 10 10 9 9 10 10 10 10 10 10 10
-3 -2 -0 2 5 6 7 7 7 7 7 7 8 8 9 9 9 10 11 11 11 11 10 10 10 9 9 9 9 9 9 9 9 9 9 9 9 10 10 10 10 10 10
-2 -1 1 4 6 7 7 8 8 8 8 9 9 9 10 10 10 11 11 11 11 11 10 10 10 9 9 9 8 8 9 9 9 9 9 9 9 9 10 10 10 10 9
-1 0 4 6 7 8 8 9 9 9 10 10 10 11 11 11 11 12 12 11 11 11 11 10 10 9 9 9 8 8 8 8 9 9 9 9 9 9 9 9 10 10 9
1 3 7 8 8 8 9 9 10 10 11 11 11 12 11 11 11 12 11 11 11 11 11 10 9 9 8 8 8 8 8 8 8 8 9 9 9 9 9 9 9 9 9
5 6 8 8 8 8 8 9 9 10 10 11 11 11 11 11 11 11 10 10 10 10 10 9 9 8 8 8 8 8 8 8 8 8 8 8 9 9 9 9 9 9 9
7 8 8 8 8 8 8 8 9 9 9 9 9 10 10 10 10 10 10 9 9 9 8 8 8 8 8 8 8 8 8 8 8 8 8 8 8 9 9 9 9 9 9
8 8 8 8 8 8 8 9 9 9 9 8 8 8 9 9 9 9 8 8 8 8 8 8 8 8 8 8 8 8 8 8 8 8 9 9 9 9 9 9 9 9 9
8 9 9 9 8 9 9 9 9 9 8 8 8 8 8 8 8 7 7 7 7 7 8 8 8 8 8 8 9 9 10 10 10 10 10 10 10 9 9 9 9 10 10
9 9 9 9 9 10 10 10 9 8 8 8 7 8 8 7 7 7 7 7 7 8 8 8 8 8 9 9 10 10 10 11 11 12 12 11 11 10 10 10 10 10 10
9 9 10 10 10 10 10 10 9 8 7 7 7 7 6 6 6 6 7 7 7 8 8 9 9 9 9 10 10 11 11 12 13 14 14 14 13 12 11 11 11 11 11
8 9 9 10 10 10 10 9 8 7 7 6 6 5 5 5 5 6 6 7 8 8 9 9 9 9 9 9 10 11 12 13 15 16 17 16 15 13 12 12 12 11 11
8 9 10 10 10 10 9 8 7 7 6 5 5 4 4 5 5 5 6 7 8 9 9 9 10 9 9 9 10 12 13 15 17 17 18 17 16 14 13 12 12 11 11
8 9 10 10 10 9 7 7 6 5 5 4 4 4 4 4 4 5 6 8 9 9 9 9 10 9 8 9 10 12 14 16 17 17 17 16 15 14 13 12 11 11 11
8 9 10 10 9 8 7 6 5 5 4 4 4 4 4 4 4 5 7 8 9 9 9 10 10 9 8 8 10 12 14 15 17 17 16 15 15 14 13 12 11 11 10